Year,Month,Day,Hour,Minute,Value (Times are PST for temperature in C)
2021,06,23,00,00,14.80
2021,06,23,00,01,14.80
2021,06,23,00,02,14.70
2021,06,23,00,03,14.70
2021,06,23,00,04,14.70
2021,06,23,00,05,14.70
2021,06,23,00,06,14.70
2021,06,23,00,07,14.70
2021,06,23,00,08,14.60
2021,06,23,00,09,14.60
2021,06,23,00,10,14.60
2021,06,23,00,11,14.60
2021,06,23,00,12,14.60
2021,06,23,00,13,14.60
2021,06,23,00,14,14.50
2021,06,23,00,15,14.50
2021,06,23,00,16,14.50
2021,06,23,00,17,14.40
2021,06,23,00,18,14.40
2021,06,23,00,19,14.40
2021,06,23,00,20,14.40
2021,06,23,00,21,14.40
2021,06,23,00,22,14.40
2021,06,23,00,23,14.30
2021,06,23,00,24,14.30
2021,06,23,00,25,14.30
2021,06,23,00,26,14.30
2021,06,23,00,27,14.30
2021,06,23,00,28,14.30
2021,06,23,00,29,14.30
2021,06,23,00,30,14.20
2021,06,23,00,31,14.20
2021,06,23,00,32,14.20
2021,06,23,00,33,14.20
2021,06,23,00,34,14.20
2021,06,23,00,35,14.20
2021,06,23,00,36,14.20
2021,06,23,00,37,14.20
2021,06,23,00,38,14.20
2021,06,23,00,39,14.20
2021,06,23,00,40,14.20
2021,06,23,00,41,14.10
2021,06,23,00,42,14.10
2021,06,23,00,43,14.10
2021,06,23,00,44,14.10
2021,06,23,00,45,14.10
2021,06,23,00,46,14.10
2021,06,23,00,47,14.10
2021,06,23,00,48,14.10
2021,06,23,00,49,14.10
2021,06,23,00,50,14.10
2021,06,23,00,51,14.10
2021,06,23,00,52,14.10
2021,06,23,00,53,14.10
2021,06,23,00,54,14.10
2021,06,23,00,55,14.10
2021,06,23,00,56,14.10
2021,06,23,00,57,14.10
2021,06,23,00,58,14.10
2021,06,23,00,59,14.10
2021,06,23,01,00,14.10
2021,06,23,01,01,14.10
2021,06,23,01,02,14.00
2021,06,23,01,03,14.00
2021,06,23,01,04,14.00
2021,06,23,01,05,14.00
2021,06,23,01,06,14.00
2021,06,23,01,07,14.00
2021,06,23,01,08,14.00
2021,06,23,01,09,14.00
2021,06,23,01,10,14.00
2021,06,23,01,11,14.00
2021,06,23,01,12,14.00
2021,06,23,01,13,14.00
2021,06,23,01,14,14.00
2021,06,23,01,15,13.90
2021,06,23,01,16,13.90
2021,06,23,01,17,13.90
2021,06,23,01,18,13.90
2021,06,23,01,19,13.90
2021,06,23,01,20,13.90
2021,06,23,01,21,13.90
2021,06,23,01,22,13.90
2021,06,23,01,23,13.90
2021,06,23,01,24,13.80
2021,06,23,01,25,13.80
2021,06,23,01,26,13.80
2021,06,23,01,27,13.80
2021,06,23,01,28,13.80
2021,06,23,01,29,13.80
2021,06,23,01,30,13.80
2021,06,23,01,31,13.80
2021,06,23,01,32,13.80
2021,06,23,01,33,13.80
2021,06,23,01,34,13.80
2021,06,23,01,35,13.80
2021,06,23,01,36,13.80
2021,06,23,01,37,13.70
2021,06,23,01,38,13.70
2021,06,23,01,39,13.70
2021,06,23,01,40,13.70
2021,06,23,01,41,13.70
2021,06,23,01,42,13.70
2021,06,23,01,43,13.70
2021,06,23,01,44,13.70
2021,06,23,01,45,13.70
2021,06,23,01,46,13.70
2021,06,23,01,47,13.70
2021,06,23,01,48,13.70
2021,06,23,01,49,13.70
2021,06,23,01,50,13.70
2021,06,23,01,51,13.70
2021,06,23,01,52,13.70
2021,06,23,01,53,13.70
2021,06,23,01,54,13.70
2021,06,23,01,55,13.70
2021,06,23,01,56,13.60
2021,06,23,01,57,13.60
2021,06,23,01,58,13.60
2021,06,23,01,59,13.60
2021,06,23,02,00,13.60
2021,06,23,02,01,13.60
2021,06,23,02,02,13.60
2021,06,23,02,03,13.60
2021,06,23,02,04,13.60
2021,06,23,02,05,13.60
2021,06,23,02,06,13.60
2021,06,23,02,07,13.60
2021,06,23,02,08,13.60
2021,06,23,02,09,13.60
2021,06,23,02,10,13.50
2021,06,23,02,11,13.50
2021,06,23,02,12,13.50
2021,06,23,02,13,13.50
2021,06,23,02,14,13.50
2021,06,23,02,15,13.50
2021,06,23,02,16,13.40
2021,06,23,02,17,13.40
2021,06,23,02,18,13.40
2021,06,23,02,19,13.40
2021,06,23,02,20,13.40
2021,06,23,02,21,13.40
2021,06,23,02,22,13.40
2021,06,23,02,23,13.40
2021,06,23,02,24,13.40
2021,06,23,02,25,13.40
2021,06,23,02,26,13.40
2021,06,23,02,27,13.30
2021,06,23,02,28,13.30
2021,06,23,02,29,13.30
2021,06,23,02,30,13.30
2021,06,23,02,31,13.30
2021,06,23,02,32,13.30
2021,06,23,02,33,13.30
2021,06,23,02,34,13.30
2021,06,23,02,35,13.30
2021,06,23,02,36,13.30
2021,06,23,02,37,13.30
2021,06,23,02,38,13.30
2021,06,23,02,39,13.20
2021,06,23,02,40,13.20
2021,06,23,02,41,13.20
2021,06,23,02,42,13.20
2021,06,23,02,43,13.20
2021,06,23,02,44,13.20
2021,06,23,02,45,13.20
2021,06,23,02,46,13.20
2021,06,23,02,47,13.20
2021,06,23,02,48,13.10
2021,06,23,02,49,13.10
2021,06,23,02,50,13.10
2021,06,23,02,51,13.10
2021,06,23,02,52,13.10
2021,06,23,02,53,13.10
2021,06,23,02,54,13.10
2021,06,23,02,55,13.10
2021,06,23,02,56,13.10
2021,06,23,02,57,13.00
2021,06,23,02,58,13.00
2021,06,23,02,59,13.00
2021,06,23,03,00,13.00
2021,06,23,03,01,13.00
2021,06,23,03,02,13.00
2021,06,23,03,03,13.00
2021,06,23,03,04,12.90
2021,06,23,03,05,12.90
2021,06,23,03,06,12.90
2021,06,23,03,07,12.90
2021,06,23,03,08,12.90
2021,06,23,03,09,12.90
2021,06,23,03,10,12.90
2021,06,23,03,11,12.90
2021,06,23,03,12,12.80
2021,06,23,03,13,12.80
2021,06,23,03,14,12.80
2021,06,23,03,15,12.80
2021,06,23,03,16,12.80
2021,06,23,03,17,12.80
2021,06,23,03,18,12.80
2021,06,23,03,19,12.80
2021,06,23,03,20,12.80
2021,06,23,03,21,12.80
2021,06,23,03,22,12.80
2021,06,23,03,23,12.70
2021,06,23,03,24,12.70
2021,06,23,03,25,12.70
2021,06,23,03,26,12.70
2021,06,23,03,27,12.70
2021,06,23,03,28,12.70
2021,06,23,03,29,12.70
2021,06,23,03,30,12.70
2021,06,23,03,31,12.70
2021,06,23,03,32,12.70
2021,06,23,03,33,12.70
2021,06,23,03,34,12.70
2021,06,23,03,35,12.60
2021,06,23,03,36,12.60
2021,06,23,03,37,12.60
2021,06,23,03,38,12.60
2021,06,23,03,39,12.60
2021,06,23,03,40,12.60
2021,06,23,03,41,12.60
2021,06,23,03,42,12.60
2021,06,23,03,43,12.60
2021,06,23,03,44,12.60
2021,06,23,03,45,12.60
2021,06,23,03,46,12.60
2021,06,23,03,47,12.60
2021,06,23,03,48,12.60
2021,06,23,03,49,12.60
2021,06,23,03,50,12.60
2021,06,23,03,51,12.60
2021,06,23,03,52,12.60
2021,06,23,03,53,12.50
2021,06,23,03,54,12.50
2021,06,23,03,55,12.50
2021,06,23,03,56,12.50
2021,06,23,03,57,12.50
2021,06,23,03,58,12.50
2021,06,23,03,59,12.50
2021,06,23,04,00,12.50
2021,06,23,04,01,12.50
2021,06,23,04,02,12.40
2021,06,23,04,03,12.40
2021,06,23,04,04,12.40
2021,06,23,04,05,12.40
2021,06,23,04,06,12.40
2021,06,23,04,07,12.40
2021,06,23,04,08,12.40
2021,06,23,04,09,12.40
2021,06,23,04,10,12.40
2021,06,23,04,11,12.40
2021,06,23,04,12,12.40
2021,06,23,04,13,12.40
2021,06,23,04,14,12.40
2021,06,23,04,15,12.40
2021,06,23,04,16,12.40
2021,06,23,04,17,12.40
2021,06,23,04,18,12.40
2021,06,23,04,19,12.40
2021,06,23,04,20,12.40
2021,06,23,04,21,12.30
2021,06,23,04,22,12.30
2021,06,23,04,23,12.30
2021,06,23,04,24,12.30
2021,06,23,04,25,12.30
2021,06,23,04,26,12.30
2021,06,23,04,27,12.30
2021,06,23,04,28,12.30
2021,06,23,04,29,12.30
2021,06,23,04,30,12.30
2021,06,23,04,31,12.30
2021,06,23,04,32,12.30
2021,06,23,04,33,12.30
2021,06,23,04,34,12.30
2021,06,23,04,35,12.30
2021,06,23,04,36,12.30
2021,06,23,04,37,12.30
2021,06,23,04,38,12.30
2021,06,23,04,39,12.30
2021,06,23,04,40,12.30
2021,06,23,04,41,12.30
2021,06,23,04,42,12.30
2021,06,23,04,43,12.30
2021,06,23,04,44,12.30
2021,06,23,04,45,12.30
2021,06,23,04,46,12.30
2021,06,23,04,47,12.30
2021,06,23,04,48,12.30
2021,06,23,04,49,12.30
2021,06,23,04,50,12.30
2021,06,23,04,51,12.30
2021,06,23,04,52,12.30
2021,06,23,04,53,12.30
2021,06,23,04,54,12.20
2021,06,23,04,55,12.20
2021,06,23,04,56,12.20
2021,06,23,04,57,12.20
2021,06,23,04,58,12.20
2021,06,23,04,59,12.20
2021,06,23,05,00,12.20
2021,06,23,05,01,12.20
2021,06,23,05,02,12.20
2021,06,23,05,03,12.20
2021,06,23,05,04,12.20
2021,06,23,05,05,12.20
2021,06,23,05,06,12.20
2021,06,23,05,07,12.20
2021,06,23,05,08,12.20
2021,06,23,05,09,12.20
2021,06,23,05,10,12.20
2021,06,23,05,11,12.20
2021,06,23,05,12,12.20
2021,06,23,05,13,12.20
2021,06,23,05,14,12.20
2021,06,23,05,15,12.20
2021,06,23,05,16,12.20
2021,06,23,05,17,12.20
2021,06,23,05,18,12.20
2021,06,23,05,19,12.20
2021,06,23,05,20,12.20
2021,06,23,05,21,12.20
2021,06,23,05,22,12.20
2021,06,23,05,23,12.20
2021,06,23,05,24,12.10
2021,06,23,05,25,12.10
2021,06,23,05,26,12.10
2021,06,23,05,27,12.10
2021,06,23,05,28,12.10
2021,06,23,05,29,12.10
2021,06,23,05,30,12.10
2021,06,23,05,31,12.10
2021,06,23,05,32,12.10
2021,06,23,05,33,12.10
2021,06,23,05,34,12.10
2021,06,23,05,35,12.10
2021,06,23,05,36,12.10
2021,06,23,05,37,12.10
2021,06,23,05,38,12.10
2021,06,23,05,39,12.10
2021,06,23,05,40,12.10
2021,06,23,05,41,12.10
2021,06,23,05,42,12.10
2021,06,23,05,43,12.10
2021,06,23,05,44,12.10
2021,06,23,05,45,12.10
2021,06,23,05,46,12.10
2021,06,23,05,47,12.10
2021,06,23,05,48,12.10
2021,06,23,05,49,12.10
2021,06,23,05,50,12.10
2021,06,23,05,51,12.10
2021,06,23,05,52,12.10
2021,06,23,05,53,12.20
2021,06,23,05,54,12.20
2021,06,23,05,55,12.20
2021,06,23,05,56,12.20
2021,06,23,05,57,12.20
2021,06,23,05,58,12.20
2021,06,23,05,59,12.20
2021,06,23,06,00,12.30
2021,06,23,06,01,12.30
2021,06,23,06,02,12.30
2021,06,23,06,03,12.30
2021,06,23,06,04,12.30
2021,06,23,06,05,12.30
2021,06,23,06,06,12.30
2021,06,23,06,07,12.30
2021,06,23,06,08,12.30
2021,06,23,06,09,12.40
2021,06,23,06,10,12.40
2021,06,23,06,11,12.40
2021,06,23,06,12,12.40
2021,06,23,06,13,12.50
2021,06,23,06,14,12.50
2021,06,23,06,15,12.50
2021,06,23,06,16,12.60
2021,06,23,06,17,12.60
2021,06,23,06,18,12.60
2021,06,23,06,19,12.60
2021,06,23,06,20,12.60
2021,06,23,06,21,12.70
2021,06,23,06,22,12.70
2021,06,23,06,23,12.70
2021,06,23,06,24,12.70
2021,06,23,06,25,12.70
2021,06,23,06,26,12.80
2021,06,23,06,27,12.80
2021,06,23,06,28,12.80
2021,06,23,06,29,12.80
2021,06,23,06,30,12.90
2021,06,23,06,31,12.90
2021,06,23,06,32,12.90
2021,06,23,06,33,13.00
2021,06,23,06,34,13.00
2021,06,23,06,35,13.00
2021,06,23,06,36,13.10
2021,06,23,06,37,13.10
2021,06,23,06,38,13.20
2021,06,23,06,39,13.20
2021,06,23,06,40,13.20
2021,06,23,06,41,13.30
2021,06,23,06,42,13.30
2021,06,23,06,43,13.30
2021,06,23,06,44,13.30
2021,06,23,06,45,13.30
2021,06,23,06,46,13.40
2021,06,23,06,47,13.40
2021,06,23,06,48,13.50
2021,06,23,06,49,13.50
2021,06,23,06,50,13.60
2021,06,23,06,51,13.60
2021,06,23,06,52,13.70
2021,06,23,06,53,13.70
2021,06,23,06,54,13.70
2021,06,23,06,55,13.80
2021,06,23,06,56,13.80
2021,06,23,06,57,13.90
2021,06,23,06,58,13.90
2021,06,23,06,59,14.00
2021,06,23,07,00,14.00
2021,06,23,07,01,14.10
2021,06,23,07,02,14.20
2021,06,23,07,03,14.20
2021,06,23,07,04,14.20
2021,06,23,07,05,14.30
2021,06,23,07,06,14.40
2021,06,23,07,07,14.40
2021,06,23,07,08,14.50
2021,06,23,07,09,14.60
2021,06,23,07,10,14.60
2021,06,23,07,11,14.70
2021,06,23,07,12,14.70
2021,06,23,07,13,14.80
2021,06,23,07,14,14.80
2021,06,23,07,15,14.80
2021,06,23,07,16,14.90
2021,06,23,07,17,14.90
2021,06,23,07,18,14.90
2021,06,23,07,19,15.00
2021,06,23,07,20,15.00
2021,06,23,07,21,15.10
2021,06,23,07,22,15.10
2021,06,23,07,23,15.10
2021,06,23,07,24,15.20
2021,06,23,07,25,15.20
2021,06,23,07,26,15.20
2021,06,23,07,27,15.30
2021,06,23,07,28,15.30
2021,06,23,07,29,15.30
2021,06,23,07,30,15.40
2021,06,23,07,31,15.40
2021,06,23,07,32,15.50
2021,06,23,07,33,15.50
2021,06,23,07,34,15.60
2021,06,23,07,35,15.60
2021,06,23,07,36,15.60
2021,06,23,07,37,15.60
2021,06,23,07,38,15.70
2021,06,23,07,39,15.70
2021,06,23,07,40,15.70
2021,06,23,07,41,15.80
2021,06,23,07,42,15.80
2021,06,23,07,43,15.80
2021,06,23,07,44,15.80
2021,06,23,07,45,15.80
2021,06,23,07,46,15.90
2021,06,23,07,47,15.90
2021,06,23,07,48,15.90
2021,06,23,07,49,15.90
2021,06,23,07,50,16.00
2021,06,23,07,51,16.00
2021,06,23,07,52,16.00
2021,06,23,07,53,16.00
2021,06,23,07,54,16.10
2021,06,23,07,55,16.10
2021,06,23,07,56,16.10
2021,06,23,07,57,16.10
2021,06,23,07,58,16.10
2021,06,23,07,59,16.10
2021,06,23,08,00,16.20
2021,06,23,08,01,16.20
2021,06,23,08,02,16.20
2021,06,23,08,03,16.20
2021,06,23,08,04,16.20
2021,06,23,08,05,16.20
2021,06,23,08,06,16.20
2021,06,23,08,07,16.20
2021,06,23,08,08,16.30
2021,06,23,08,09,16.30
2021,06,23,08,10,16.30
2021,06,23,08,11,16.40
2021,06,23,08,12,16.40
2021,06,23,08,13,16.40
2021,06,23,08,14,16.50
2021,06,23,08,15,16.50
2021,06,23,08,16,16.50
2021,06,23,08,17,16.50
2021,06,23,08,18,16.50
2021,06,23,08,19,16.50
2021,06,23,08,20,16.50
2021,06,23,08,21,16.50
2021,06,23,08,22,16.40
2021,06,23,08,23,16.50
2021,06,23,08,24,16.50
2021,06,23,08,25,16.50
2021,06,23,08,26,16.50
2021,06,23,08,27,16.50
2021,06,23,08,28,16.60
2021,06,23,08,29,16.60
2021,06,23,08,30,16.60
2021,06,23,08,31,16.60
2021,06,23,08,32,16.70
2021,06,23,08,33,16.70
2021,06,23,08,34,16.80
2021,06,23,08,35,16.80
2021,06,23,08,36,16.80
2021,06,23,08,37,16.90
2021,06,23,08,38,16.90
2021,06,23,08,39,16.90
2021,06,23,08,40,16.90
2021,06,23,08,41,16.90
2021,06,23,08,42,16.90
2021,06,23,08,43,16.90
2021,06,23,08,44,16.80
2021,06,23,08,45,16.70
2021,06,23,08,46,16.60
2021,06,23,08,47,16.60
2021,06,23,08,48,16.50
2021,06,23,08,49,16.40
2021,06,23,08,50,16.40
2021,06,23,08,51,16.30
2021,06,23,08,52,16.20
2021,06,23,08,53,16.10
2021,06,23,08,54,16.00
2021,06,23,08,55,15.90
2021,06,23,08,56,15.90
2021,06,23,08,57,15.80
2021,06,23,08,58,15.70
2021,06,23,08,59,15.70
2021,06,23,09,00,15.70
2021,06,23,09,01,15.70
2021,06,23,09,02,15.70
2021,06,23,09,03,15.70
2021,06,23,09,04,15.70
2021,06,23,09,05,15.80
2021,06,23,09,06,15.80
2021,06,23,09,07,15.80
2021,06,23,09,08,15.70
2021,06,23,09,09,15.80
2021,06,23,09,10,15.80
2021,06,23,09,11,15.90
2021,06,23,09,12,15.90
2021,06,23,09,13,16.00
2021,06,23,09,14,16.10
2021,06,23,09,15,16.10
2021,06,23,09,16,16.10
2021,06,23,09,17,16.20
2021,06,23,09,18,16.20
2021,06,23,09,19,16.20
2021,06,23,09,20,16.20
2021,06,23,09,21,16.20
2021,06,23,09,22,16.30
2021,06,23,09,23,16.30
2021,06,23,09,24,16.30
2021,06,23,09,25,16.30
2021,06,23,09,26,16.40
2021,06,23,09,27,16.40
2021,06,23,09,28,16.40
2021,06,23,09,29,16.40
2021,06,23,09,30,16.50
2021,06,23,09,31,16.50
2021,06,23,09,32,16.50
2021,06,23,09,33,16.60
2021,06,23,09,34,16.60
2021,06,23,09,35,16.60
2021,06,23,09,36,16.70
2021,06,23,09,37,16.70
2021,06,23,09,38,16.70
2021,06,23,09,39,16.70
2021,06,23,09,40,16.70
2021,06,23,09,41,16.80
2021,06,23,09,42,16.80
2021,06,23,09,43,16.80
2021,06,23,09,44,16.80
2021,06,23,09,45,16.80
2021,06,23,09,46,16.80
2021,06,23,09,47,16.90
2021,06,23,09,48,16.90
2021,06,23,09,49,16.90
2021,06,23,09,50,17.00
2021,06,23,09,51,17.00
2021,06,23,09,52,17.10
2021,06,23,09,53,17.10
2021,06,23,09,54,17.20
2021,06,23,09,55,17.20
2021,06,23,09,56,17.20
2021,06,23,09,57,17.20
2021,06,23,09,58,17.20
2021,06,23,09,59,17.20
2021,06,23,10,00,17.30
2021,06,23,10,01,17.30
2021,06,23,10,02,17.40
2021,06,23,10,03,17.40
2021,06,23,10,04,17.40
2021,06,23,10,05,17.30
2021,06,23,10,06,17.30
2021,06,23,10,07,17.20
2021,06,23,10,08,17.20
2021,06,23,10,09,17.20
2021,06,23,10,10,17.20
2021,06,23,10,11,17.20
2021,06,23,10,12,17.20
2021,06,23,10,13,17.20
2021,06,23,10,14,17.10
2021,06,23,10,15,17.10
2021,06,23,10,16,17.10
2021,06,23,10,17,17.10
2021,06,23,10,18,17.10
2021,06,23,10,19,17.10
2021,06,23,10,20,17.20
2021,06,23,10,21,17.20
2021,06,23,10,22,17.20
2021,06,23,10,23,17.30
2021,06,23,10,24,17.30
2021,06,23,10,25,17.30
2021,06,23,10,26,17.30
2021,06,23,10,27,17.30
2021,06,23,10,28,17.30
2021,06,23,10,29,17.30
2021,06,23,10,30,17.30
2021,06,23,10,31,17.30
2021,06,23,10,32,17.30
2021,06,23,10,33,17.40
2021,06,23,10,34,17.40
2021,06,23,10,35,17.40
2021,06,23,10,36,17.40
2021,06,23,10,37,17.40
2021,06,23,10,38,17.40
2021,06,23,10,39,17.30
2021,06,23,10,40,17.20
2021,06,23,10,41,17.20
2021,06,23,10,42,17.10
2021,06,23,10,43,17.10
2021,06,23,10,44,17.10
2021,06,23,10,45,17.20
2021,06,23,10,46,17.20
2021,06,23,10,47,17.30
2021,06,23,10,48,17.40
2021,06,23,10,49,17.50
2021,06,23,10,50,17.60
2021,06,23,10,51,17.60
2021,06,23,10,52,17.70
2021,06,23,10,53,17.80
2021,06,23,10,54,17.90
2021,06,23,10,55,18.00
2021,06,23,10,56,18.10
2021,06,23,10,57,18.10
2021,06,23,10,58,18.20
2021,06,23,10,59,18.20
2021,06,23,11,00,18.20
2021,06,23,11,01,18.20
2021,06,23,11,02,18.20
2021,06,23,11,03,18.20
2021,06,23,11,04,18.30
2021,06,23,11,05,18.30
2021,06,23,11,06,18.30
2021,06,23,11,07,18.30
2021,06,23,11,08,18.30
2021,06,23,11,09,18.30
2021,06,23,11,10,18.30
2021,06,23,11,11,18.30
2021,06,23,11,12,18.30
2021,06,23,11,13,18.30
2021,06,23,11,14,18.30
2021,06,23,11,15,18.30
2021,06,23,11,16,18.30
2021,06,23,11,17,18.30
2021,06,23,11,18,18.30
2021,06,23,11,19,18.30
2021,06,23,11,20,18.30
2021,06,23,11,21,18.20
2021,06,23,11,22,18.20
2021,06,23,11,23,18.20
2021,06,23,11,24,18.20
2021,06,23,11,25,18.20
2021,06,23,11,26,18.20
2021,06,23,11,27,18.20
2021,06,23,11,28,18.20
2021,06,23,11,29,18.10
2021,06,23,11,30,18.00
2021,06,23,11,31,17.90
2021,06,23,11,32,17.80
2021,06,23,11,33,17.70
2021,06,23,11,34,17.70
2021,06,23,11,35,17.60
2021,06,23,11,36,17.50
2021,06,23,11,37,17.50
2021,06,23,11,38,17.40
2021,06,23,11,39,17.30
2021,06,23,11,40,17.30
2021,06,23,11,41,17.20
2021,06,23,11,42,17.20
2021,06,23,11,43,17.10
2021,06,23,11,44,17.00
2021,06,23,11,45,17.00
2021,06,23,11,46,16.90
2021,06,23,11,47,16.80
2021,06,23,11,48,16.80
2021,06,23,11,49,16.70
2021,06,23,11,50,16.70
2021,06,23,11,51,16.70
2021,06,23,11,52,16.70
2021,06,23,11,53,16.70
2021,06,23,11,54,16.70
2021,06,23,11,55,16.70
2021,06,23,11,56,16.60
2021,06,23,11,57,16.50
2021,06,23,11,58,16.50
2021,06,23,11,59,16.40
2021,06,23,12,00,16.40
2021,06,23,12,01,16.30
2021,06,23,12,02,16.30
2021,06,23,12,03,16.30
2021,06,23,12,04,16.30
2021,06,23,12,05,16.40
2021,06,23,12,06,16.50
2021,06,23,12,07,16.50
2021,06,23,12,08,16.60
2021,06,23,12,09,16.60
2021,06,23,12,10,16.60
2021,06,23,12,11,16.60
2021,06,23,12,12,16.60
2021,06,23,12,13,16.60
2021,06,23,12,14,16.60
2021,06,23,12,15,16.60
2021,06,23,12,16,16.70
2021,06,23,12,17,16.70
2021,06,23,12,18,16.80
2021,06,23,12,19,16.80
2021,06,23,12,20,16.80
2021,06,23,12,21,16.80
2021,06,23,12,22,16.80
2021,06,23,12,23,16.70
2021,06,23,12,24,16.60
2021,06,23,12,25,16.60
2021,06,23,12,26,16.60
2021,06,23,12,27,16.60
2021,06,23,12,28,16.60
2021,06,23,12,29,16.60
2021,06,23,12,30,16.60
2021,06,23,12,31,16.50
2021,06,23,12,32,16.30
2021,06,23,12,33,16.20
2021,06,23,12,34,16.10
2021,06,23,12,35,16.00
2021,06,23,12,36,15.90
2021,06,23,12,37,15.80
2021,06,23,12,38,15.70
2021,06,23,12,39,15.70
2021,06,23,12,40,15.70
2021,06,23,12,41,15.60
2021,06,23,12,42,15.50
2021,06,23,12,43,15.30
2021,06,23,12,44,15.30
2021,06,23,12,45,15.30
2021,06,23,12,46,15.30
2021,06,23,12,47,15.30
2021,06,23,12,48,15.30
2021,06,23,12,49,15.30
2021,06,23,12,50,15.30
2021,06,23,12,51,15.20
2021,06,23,12,52,15.20
2021,06,23,12,53,15.20
2021,06,23,12,54,15.10
2021,06,23,12,55,15.10
2021,06,23,12,56,15.10
2021,06,23,12,57,15.10
2021,06,23,12,58,15.10
2021,06,23,12,59,15.10
2021,06,23,13,00,15.30
2021,06,23,13,01,15.40
2021,06,23,13,02,15.60
2021,06,23,13,03,15.70
2021,06,23,13,04,15.90
2021,06,23,13,05,15.90
2021,06,23,13,06,15.90
2021,06,23,13,07,15.90
2021,06,23,13,08,15.90
2021,06,23,13,09,15.90
2021,06,23,13,10,16.00
2021,06,23,13,11,16.00
2021,06,23,13,12,16.10
2021,06,23,13,13,16.10
2021,06,23,13,14,16.10
2021,06,23,13,15,16.10
2021,06,23,13,16,16.00
2021,06,23,13,17,16.00
2021,06,23,13,18,15.90
2021,06,23,13,19,15.90
2021,06,23,13,20,15.90
2021,06,23,13,21,15.90
2021,06,23,13,22,16.00
2021,06,23,13,23,16.00
2021,06,23,13,24,16.00
2021,06,23,13,25,16.00
2021,06,23,13,26,16.10
2021,06,23,13,27,16.10
2021,06,23,13,28,16.10
2021,06,23,13,29,16.10
2021,06,23,13,30,16.20
2021,06,23,13,31,16.20
2021,06,23,13,32,16.30
2021,06,23,13,33,16.30
2021,06,23,13,34,16.40
2021,06,23,13,35,16.50
2021,06,23,13,36,16.60
2021,06,23,13,37,16.70
2021,06,23,13,38,16.70
2021,06,23,13,39,16.70
2021,06,23,13,40,16.60
2021,06,23,13,41,16.70
2021,06,23,13,42,16.70
2021,06,23,13,43,16.60
2021,06,23,13,44,16.50
2021,06,23,13,45,16.40
2021,06,23,13,46,16.30
2021,06,23,13,47,16.20
2021,06,23,13,48,16.10
2021,06,23,13,49,16.00
2021,06,23,13,50,16.00
2021,06,23,13,51,15.90
2021,06,23,13,52,15.90
2021,06,23,13,53,15.90
2021,06,23,13,54,15.90
2021,06,23,13,55,15.90
2021,06,23,13,56,15.90
2021,06,23,13,57,15.90
2021,06,23,13,58,15.90
2021,06,23,13,59,15.90
2021,06,23,14,00,16.00
2021,06,23,14,01,16.10
2021,06,23,14,02,16.10
2021,06,23,14,03,16.20
2021,06,23,14,04,16.20
2021,06,23,14,05,16.10
2021,06,23,14,06,16.10
2021,06,23,14,07,16.20
2021,06,23,14,08,16.30
2021,06,23,14,09,16.40
2021,06,23,14,10,16.50
2021,06,23,14,11,16.50
2021,06,23,14,12,16.60
2021,06,23,14,13,16.70
2021,06,23,14,14,16.80
2021,06,23,14,15,16.80
2021,06,23,14,16,16.80
2021,06,23,14,17,16.90
2021,06,23,14,18,17.00
2021,06,23,14,19,17.00
2021,06,23,14,20,17.00
2021,06,23,14,21,17.10
2021,06,23,14,22,17.20
2021,06,23,14,23,17.30
2021,06,23,14,24,17.40
2021,06,23,14,25,17.60
2021,06,23,14,26,17.70
2021,06,23,14,27,17.80
2021,06,23,14,28,17.90
2021,06,23,14,29,18.00
2021,06,23,14,30,18.00
2021,06,23,14,31,18.00
2021,06,23,14,32,17.90
2021,06,23,14,33,17.90
2021,06,23,14,34,17.80
2021,06,23,14,35,17.80
2021,06,23,14,36,17.80
2021,06,23,14,37,17.90
2021,06,23,14,38,18.00
2021,06,23,14,39,18.00
2021,06,23,14,40,18.10
2021,06,23,14,41,18.10
2021,06,23,14,42,18.00
2021,06,23,14,43,18.00
2021,06,23,14,44,18.00
2021,06,23,14,45,18.10
2021,06,23,14,46,18.20
2021,06,23,14,47,18.30
2021,06,23,14,48,18.40
2021,06,23,14,49,18.50
2021,06,23,14,50,18.60
2021,06,23,14,51,18.60
2021,06,23,14,52,18.60
2021,06,23,14,53,18.60
2021,06,23,14,54,18.60
2021,06,23,14,55,18.60
2021,06,23,14,56,18.70
2021,06,23,14,57,18.80
2021,06,23,14,58,18.80
2021,06,23,14,59,18.80
2021,06,23,15,00,18.80
2021,06,23,15,01,18.80
2021,06,23,15,02,18.70
2021,06,23,15,03,18.60
2021,06,23,15,04,18.60
2021,06,23,15,05,18.60
2021,06,23,15,06,18.70
2021,06,23,15,07,18.80
2021,06,23,15,08,18.80
2021,06,23,15,09,18.90
2021,06,23,15,10,18.90
2021,06,23,15,11,18.90
2021,06,23,15,12,18.90
2021,06,23,15,13,18.90
2021,06,23,15,14,18.80
2021,06,23,15,15,18.80
2021,06,23,15,16,18.70
2021,06,23,15,17,18.50
2021,06,23,15,18,18.50
2021,06,23,15,19,18.40
2021,06,23,15,20,18.40
2021,06,23,15,21,18.30
2021,06,23,15,22,18.30
2021,06,23,15,23,18.30
2021,06,23,15,24,18.50
2021,06,23,15,25,18.70
2021,06,23,15,26,18.80
2021,06,23,15,27,18.90
2021,06,23,15,28,19.10
2021,06,23,15,29,19.10
2021,06,23,15,30,19.10
2021,06,23,15,31,19.10
2021,06,23,15,32,19.10
2021,06,23,15,33,19.20
2021,06,23,15,34,19.30
2021,06,23,15,35,19.30
2021,06,23,15,36,19.30
2021,06,23,15,37,19.40
2021,06,23,15,38,19.50
2021,06,23,15,39,19.50
2021,06,23,15,40,19.60
2021,06,23,15,41,19.70
2021,06,23,15,42,19.70
2021,06,23,15,43,19.80
2021,06,23,15,44,19.80
2021,06,23,15,45,19.80
2021,06,23,15,46,19.80
2021,06,23,15,47,19.70
2021,06,23,15,48,19.70
2021,06,23,15,49,19.60
2021,06,23,15,50,19.60
2021,06,23,15,51,19.50
2021,06,23,15,52,19.50
2021,06,23,15,53,19.40
2021,06,23,15,54,19.40
2021,06,23,15,55,19.50
2021,06,23,15,56,19.50
2021,06,23,15,57,19.60
2021,06,23,15,58,19.60
2021,06,23,15,59,19.60
2021,06,23,16,00,19.60
2021,06,23,16,01,19.70
2021,06,23,16,02,19.80
2021,06,23,16,03,19.80
2021,06,23,16,04,19.80
2021,06,23,16,05,20.00
2021,06,23,16,06,20.00
2021,06,23,16,07,20.10
2021,06,23,16,08,20.10
2021,06,23,16,09,20.10
2021,06,23,16,10,20.10
2021,06,23,16,11,20.10
2021,06,23,16,12,20.20
2021,06,23,16,13,20.20
2021,06,23,16,14,20.30
2021,06,23,16,15,20.30
2021,06,23,16,16,20.30
2021,06,23,16,17,20.30
2021,06,23,16,18,20.40
2021,06,23,16,19,20.60
2021,06,23,16,20,20.70
2021,06,23,16,21,20.80
2021,06,23,16,22,20.90
2021,06,23,16,23,21.10
2021,06,23,16,24,21.20
2021,06,23,16,25,21.30
2021,06,23,16,26,21.30
2021,06,23,16,27,21.40
2021,06,23,16,28,21.40
2021,06,23,16,29,21.40
2021,06,23,16,30,21.50
2021,06,23,16,31,21.50
2021,06,23,16,32,21.60
2021,06,23,16,33,21.60
2021,06,23,16,34,21.60
2021,06,23,16,35,21.60
2021,06,23,16,36,21.70
2021,06,23,16,37,21.70
2021,06,23,16,38,21.80
2021,06,23,16,39,21.90
2021,06,23,16,40,21.90
2021,06,23,16,41,22.00
2021,06,23,16,42,22.10
2021,06,23,16,43,22.20
2021,06,23,16,44,22.20
2021,06,23,16,45,22.20
2021,06,23,16,46,22.20
2021,06,23,16,47,22.30
2021,06,23,16,48,22.30
2021,06,23,16,49,22.40
2021,06,23,16,50,22.50
2021,06,23,16,51,22.50
2021,06,23,16,52,22.50
2021,06,23,16,53,22.50
2021,06,23,16,54,22.50
2021,06,23,16,55,22.50
2021,06,23,16,56,22.60
2021,06,23,16,57,22.60
2021,06,23,16,58,22.70
2021,06,23,16,59,22.70
2021,06,23,17,00,22.80
2021,06,23,17,01,22.80
2021,06,23,17,02,22.80
2021,06,23,17,03,22.80
2021,06,23,17,04,22.80
2021,06,23,17,05,22.80
2021,06,23,17,06,22.80
2021,06,23,17,07,22.80
2021,06,23,17,08,22.80
2021,06,23,17,09,22.80
2021,06,23,17,10,22.80
2021,06,23,17,11,22.80
2021,06,23,17,12,22.80
2021,06,23,17,13,22.80
2021,06,23,17,14,22.80
2021,06,23,17,15,22.80
2021,06,23,17,16,22.90
2021,06,23,17,17,22.90
2021,06,23,17,18,23.00
2021,06,23,17,19,23.10